Home   Weather   Jalandhar   Past weeks

Flag for India Past Weather in Jalandhar, Punjab, India — Yesterday and Last 2 Weeks

Now
73 °F

Clear.


Feels Like: 77 °F
Forecast: 72 / 101 °F
Wind: 8 mph from North

Location: Lahore Airport

Current Time: Apr 25, 2017 at 6:36:02 am

Latest Report: Apr 25, 2017 at 4:55 am


Visibility: 2 mi

Pressure: 29.71 "Hg

Humidity: 57%

Dew Point: 57 °F

Location of JalandharLocation

Past Weather in Jalandhar — Graph

°F

Jalandhar Temperature Yesterday

Maximum temperature yesterday: 95 °F (at 3:25 pm)
Minimum temperature yesterday: 66 °F (at 4:55 am)
Average temperature yesterday: 80 °F

High & Low Weather Summary for the Past Weeks

 TemperatureHumidityPressure
High113 °F (Apr 18, 2:25 pm)100% (Apr 18, 7:00 am)29.92 "Hg (Apr 18, 7:00 am)
Low66 °F (Apr 10, 4:59 am)8% (Apr 18, 3:55 pm)29.45 "Hg (Apr 20, 4:25 pm)
Average88 °F36%29.70 "Hg
* Reported Apr 10 4:59 am — Apr 25 4:55 am, Jalandhar, Weather by CustomWeather, © 2017

Note: Actual official high and low records may vary slightly from our data, if they occured in-between our weather recording intervals... More about our weather records

Advertising

Jalandhar Weather History for the Previous 24 Hours

Scroll right to see more
 ConditionsComfort  
Time TempWeatherWind HumidityBarometerVisibility
4:55 am
Tue, Apr 25
73 °FClear.8 mph57%29.71 "Hg2 mi
4:25 am75 °FClear.9 mph54%29.74 "Hg2 mi
3:55 am75 °FClear.14 mph54%29.74 "Hg2 mi
3:25 am75 °FClear.9 mph54%29.74 "Hg2 mi
2:55 am77 °FClear.5 mph51%29.74 "Hg2 mi
2:25 am77 °FClear.5 mph51%29.74 "Hg2 mi
1:25 am79 °FHaze.12 mph48%29.77 "Hg2 mi
12:55 am81 °FHaze.9 mph45%29.77 "Hg2 mi
12:25 am81 °FHaze.10 mph45%29.77 "Hg2 mi
11:59 pm
Mon, Apr 24
82 °FHaze.9 mph42%29.77 "Hg2 mi
10:55 pm82 °FHaze.13 mph42%29.77 "Hg2 mi
10:25 pm84 °FHaze.12 mph40%29.77 "Hg2 mi
9:55 pm84 °FHaze.10 mph37%29.77 "Hg3 mi
9:25 pm84 °FHaze.7 mph37%29.77 "Hg3 mi
8:55 pm86 °FHaze.7 mph33%29.74 "Hg3 mi
8:25 pm86 °FHaze.7 mph33%29.74 "Hg3 mi
7:25 pm90 °FClear.6 mph27%29.74 "Hg4 mi
6:55 pm91 °FClear.7 mph24%29.71 "Hg4 mi
6:25 pm93 °FClear.5 mph23%29.71 "Hg4 mi
5:55 pm93 °FClear.3 mph24%29.71 "Hg4 mi
5:25 pm95 °FThunderstorms. Cloudy.2 mph23%29.71 "HgN/A
4:55 pm95 °FClear.8 mph25%29.71 "Hg4 mi
3:55 pm95 °FClear.No wind23%29.71 "Hg4 mi
3:25 pm95 °FClear.3 mph23%29.74 "Hg4 mi
2:25 pm93 °FClear.3 mph24%29.77 "Hg4 mi
12:35 pm88 °FScattered clouds.5 mph40%29.80 "Hg3 mi
11:25 am84 °FSunny.5 mph43%29.80 "Hg10 mi
10:55 am82 °FSunny.No wind45%29.80 "Hg10 mi
10:25 am82 °FSunny.3 mph45%29.80 "Hg10 mi
9:55 am81 °FSunny.No wind51%29.80 "Hg10 mi
9:25 am79 °FClear.3 mph54%29.77 "Hg4 mi
8:55 am77 °FClear.No wind57%29.77 "Hg4 mi
8:25 am73 °FClear.No wind65%29.77 "Hg4 mi
7:55 am70 °FClear.5 mph73%29.77 "Hg3 mi
7:25 am70 °FClear.5 mph73%29.74 "Hg3 mi
6:55 am68 °FPassing clouds.5 mph78%29.74 "Hg2 mi
6:25 am66 °FPassing clouds.5 mph88%29.71 "Hg2 mi
Weather by CustomWeather, © 2017

See weather overviewHow to use our weather pages